Home > Weather > Greeley > Past weeks

Flag for USA Weather for the Past 2 Weeks in Greeley, Colorado, USA

Now
81 °F

Sunny.


Feels Like: 80 °F
Forecast: 46 / 82 °F
Wind: 12 mph from Southeast

Location: Greeley / Weld

Current Time: May 6, 2016 at 1:41:31 PM

Latest Report: May 6, 2016 at 1:15 PM


Visibility: N/A

Pressure: 29.92 "Hg (25.44 "Hg at 1424m altitude)

Humidity: 37%

Dew Point: 52 °F

Location of GreeleyLocation

Historic Weather in Greeley — Graph

°F

Greeley Temperature Yesterday

Maximum temperature yesterday: 82 °F (at 2:35 PM)
Minimum temperature yesterday: 41 °F (at 4:35 AM)
Average temperature yesterday: 62 °F

High & Low Weather Summary for the Past Weeks

 TemperatureHumidityPressure
High82 °F (May 5, 2:35 PM)100% (Apr 29, 11:15 AM)30.34 "Hg (Apr 29, 11:15 AM)
Low25 °F (May 2, 4:55 AM)17% (May 5, 2:35 PM)29.53 "Hg (Apr 25, 5:35 PM)
Average49 °F63%29.98 "Hg
* Reported Apr 21 12:15 PM — May 6 12:35 PM, Greeley, Weather by CustomWeather, © 2016

Note: Actual official high and low records may vary slightly from our data, if they occured in-between our weather recording intervals... More about our weather records

Advertising

Greeley Weather History for the Previous 24 Hours

Scroll right to see more
 ConditionsComfort  
Time TempWeatherWind HumidityBarometerVisibility
12:35 PM
Fri, May 6
75 °FSunny.9 mph36%29.94 "Hg10 mi
12:15 PM73 °FSunny.7 mph41%29.95 "Hg10 mi
11:55 AM73 °FSunny.7 mph44%29.96 "Hg10 mi
11:35 AM73 °FSunny.5 mph47%29.96 "Hg10 mi
11:15 AM68 °FSunny.No wind53%29.97 "Hg10 mi
10:55 AM66 °FSunny.No wind49%29.97 "Hg10 mi
10:35 AM64 °FSunny.No wind56%29.97 "Hg10 mi
10:15 AM66 °FSunny.No wind52%29.98 "Hg10 mi
9:55 AM63 °FSunny.No wind59%29.97 "Hg10 mi
9:35 AM61 °FSunny.No wind59%29.98 "Hg10 mi
9:15 AM59 °FSunny.5 mph63%29.98 "Hg10 mi
8:55 AM57 °FSunny.3 mph67%29.98 "Hg10 mi
8:35 AM55 °FSunny.3 mph72%29.98 "Hg10 mi
8:15 AM55 °FSunny.No wind72%29.99 "Hg9 mi
7:55 AM54 °FSunny.5 mph77%29.99 "Hg10 mi
7:35 AM52 °FSunny.5 mph82%29.98 "Hg10 mi
7:15 AM50 °FSunny.8 mph82%29.98 "Hg10 mi
6:55 AM48 °FSunny.6 mph87%29.99 "Hg10 mi
6:35 AM48 °FClear.6 mph87%29.97 "Hg10 mi
6:15 AM46 °FClear.7 mph87%29.97 "Hg10 mi
5:55 AM46 °FClear.5 mph87%29.96 "Hg10 mi
5:35 AM46 °FClear.6 mph87%29.96 "Hg10 mi
5:15 AM46 °FClear.5 mph87%29.96 "Hg10 mi
4:55 AM48 °FClear.6 mph82%29.96 "Hg10 mi
4:35 AM52 °FClear.5 mph72%29.96 "Hg10 mi
4:15 AM52 °FClear.7 mph72%29.96 "Hg9 mi
3:55 AM52 °FClear.6 mph72%29.96 "Hg9 mi
3:35 AM52 °FClear.6 mph72%29.96 "Hg10 mi
3:15 AM54 °FClear.7 mph67%29.96 "Hg5 mi
2:55 AM52 °FClear.6 mph72%29.96 "Hg10 mi
2:35 AM54 °FClear.6 mph67%29.97 "Hg10 mi
2:15 AM54 °FClear.10 mph67%29.98 "Hg10 mi
1:55 AM54 °FClear.9 mph67%29.99 "Hg10 mi
1:35 AM55 °FClear.8 mph63%30.00 "Hg10 mi
1:15 AM57 °FClear.7 mph59%30.01 "Hg10 mi
12:55 AM55 °FClear.6 mph63%30.01 "Hg5 mi
12:35 AM57 °FClear.7 mph59%30.02 "Hg9 mi
12:15 AM61 °FClear.6 mph52%30.02 "Hg10 mi
11:55 PM
Thu, May 5
61 °FClear.8 mph52%30.02 "Hg10 mi
11:35 PM61 °FClear.13 mph52%30.01 "Hg10 mi
11:15 PM61 °FClear.7 mph52%30.01 "Hg10 mi
10:55 PM61 °FClear.9 mph52%30.01 "Hg10 mi
10:35 PM61 °FClear.7 mph52%30.01 "Hg10 mi
10:15 PM63 °FClear.No wind49%30.01 "Hg10 mi
9:55 PM63 °FClear.7 mph49%30.01 "Hg10 mi
9:35 PM61 °FClear.No wind52%30.00 "Hg5 mi
9:15 PM63 °FClear.7 mph45%30.00 "Hg10 mi
8:55 PM63 °FSunny.6 mph49%29.99 "Hg10 mi
8:35 PM66 °FSunny.5 mph43%29.98 "Hg10 mi
8:15 PM66 °FSunny.7 mph43%29.98 "Hg10 mi
7:55 PM70 °FSunny.7 mph38%29.98 "Hg10 mi
7:35 PM72 °FSunny.6 mph38%29.98 "Hg10 mi
7:15 PM73 °FSunny.7 mph33%29.97 "Hg9 mi
6:55 PM75 °FSunny.6 mph29%29.98 "Hg10 mi
6:35 PM75 °FSunny.5 mph34%29.98 "Hg10 mi
6:15 PM77 °FSunny.7 mph26%29.98 "Hg10 mi
5:55 PM77 °FSunny.8 mph26%29.99 "Hg10 mi
5:35 PM79 °FSunny.7 mph30%29.99 "HgN/A
5:15 PM81 °FSunny.6 mph23%30.00 "HgN/A
4:55 PM81 °FSunny.9 mph23%30.00 "HgN/A
4:35 PM79 °FSunny.3 mph23%30.01 "HgN/A
4:15 PM82 °FSunny.10 mph20%30.01 "HgN/A
3:55 PM82 °FSunny.10 mph20%30.02 "HgN/A
3:35 PM82 °FSunny.No wind20%30.03 "HgN/A
3:15 PM81 °FSunny.7 mph21%30.03 "HgN/A
2:55 PM81 °FSunny.7 mph18%30.04 "HgN/A
2:35 PM82 °FSunny.8 mph17%30.05 "HgN/A
2:15 PM81 °FSunny.7 mph21%30.05 "HgN/A
1:55 PM79 °FSunny.6 mph21%30.06 "HgN/A
1:35 PM81 °FSunny.6 mph21%30.06 "HgN/A
Weather by CustomWeather, © 2016

See weather overviewHow to use our weather pages